| time (UTC) | temp F | wind direction | speed MPH | gust MPH | rain 1hr in | rain 24hr in | rain mn in | humidity % | barometer mb |
| 20260905010204 | 64 | 71 | 4.0 | 10.0 | 0.00 | 0.14 | 0.00 | 72 | 1014.3 |
| 20260905003703 | 66 | 70 | 5.0 | 9.0 | 0.00 | 0.21 | 0.00 | 71 | 1014.2 |
| 20260905003204 | 66 | 53 | 5.0 | 12.0 | 0.00 | 0.21 | 0.00 | 70 | 1014.2 |
| 20260905000704 | 67 | 70 | 5.0 | 12.0 | 0.00 | 0.21 | 0.00 | 66 | 1014.0 |
| 20260905000204 | 67 | 84 | 5.0 | 12.0 | 0.00 | 0.21 | 0.00 | 65 | 1014.0 |
| 20260904233704 | 70 | 258 | 2.0 | 3.0 | 0.00 | 0.21 | 0.00 | 53 | 1013.9 |
| 20260904230704 | 71 | 128 | 1.0 | 3.0 | 0.00 | 0.21 | 0.00 | 54 | 1013.6 |
| 20260904230204 | 71 | 351 | 2.0 | 10.0 | 0.00 | 0.21 | 0.00 | 55 | 1013.5 |
| 20260904223704 | 71 | 346 | 2.0 | 7.0 | 0.00 | 0.21 | 0.00 | 57 | 1013.3 |
| 20260904223204 | 70 | 13 | 2.0 | 9.0 | 0.00 | 0.21 | 0.00 | 60 | 1013.2 |
| 20260904220703 | 73 | 335 | 2.0 | 8.0 | 0.00 | 0.21 | 0.00 | 54 | 1013.3 |
| 20260904213704 | 73 | 322 | 1.0 | 3.0 | 0.00 | 0.21 | 0.00 | 55 | 1013.1 |
| 20260904213204 | 73 | 359 | 1.0 | 7.0 | 0.00 | 0.21 | 0.00 | 56 | 1013.1 |
| 20260904210704 | 71 | 190 | 2.0 | 6.0 | 0.00 | 0.21 | 0.00 | 58 | 1013.0 |
| 20260904210204 | 71 | 259 | 3.0 | 8.0 | 0.00 | 0.21 | 0.00 | 57 | 1013.1 |
| 20260904203704 | 69 | 323 | 1.0 | 3.0 | 0.00 | 0.21 | 0.00 | 60 | 1013.2 |
| 20260904203204 | 69 | 298 | 2.0 | 9.0 | 0.00 | 0.21 | 0.00 | 60 | 1013.2 |
| 20260904200704 | 69 | 255 | 1.0 | 6.0 | 0.00 | 0.21 | 0.00 | 62 | 1013.3 |
| 20260904200204 | 68 | 356 | 2.0 | 6.0 | 0.00 | 0.21 | 0.00 | 63 | 1013.3 |
| 20260904193704 | 69 | 266 | 1.0 | 3.0 | 0.00 | 0.21 | 0.00 | 64 | 1013.3 |
| 20260904193204 | 68 | 54 | 2.0 | 6.0 | 0.00 | 0.21 | 0.00 | 64 | 1013.3 |
| 20260904190703 | 66 | 301 | 3.0 | 10.0 | 0.00 | 0.21 | 0.00 | 70 | 1013.4 |
| 20260904190203 | 65 | 19 | 2.0 | 7.0 | 0.00 | 0.21 | 0.00 | 71 | 1013.4 |
| 20260904183704 | 63 | 317 | 1.0 | 3.0 | 0.00 | 0.21 | 0.00 | 74 | 1013.4 |
| 20260904183204 | 63 | 162 | 1.0 | 3.0 | 0.00 | 0.21 | 0.00 | 76 | 1013.5 |
| 20260904180704 | 61 | 179 | 0.0 | 2.0 | 0.00 | 0.21 | 0.00 | 79 | 1013.5 |
| 20260904180203 | 61 | 199 | 1.0 | 6.0 | 0.00 | 0.21 | 0.00 | 81 | 1013.5 |
| 20260904173703 | 61 | 314 | 2.0 | 3.0 | 0.00 | 0.21 | 0.00 | 84 | 1013.6 |
| 20260904170204 | 59 | 288 | 1.0 | 2.0 | 0.00 | 0.21 | 0.00 | 87 | 1013.5 |
| 20260904163703 | 58 | 306 | 1.0 | 2.0 | 0.00 | 0.21 | 0.00 | 88 | 1013.5 |
| 20260904163204 | 58 | 306 | 0.0 | 2.0 | 0.00 | 0.21 | 0.00 | 88 | 1013.5 |
| 20260904160703 | 58 | 306 | 1.0 | 2.0 | 0.00 | 0.21 | 0.00 | 89 | 1013.4 |
| 20260904153704 | 58 | 72 | 0.0 | 1.0 | 0.00 | 0.21 | 0.00 | 87 | 1013.2 |
| 20260904150704 | 56 | 86 | 0.0 | 1.0 | 0.00 | 0.21 | 0.00 | 91 | 1013.0 |
| 20260904143704 | 55 | 86 | 0.0 | 0.0 | 0.00 | 0.21 | 0.00 | 92 | 1012.6 |
| 20260904143203 | 55 | 86 | 0.0 | 2.0 | 0.00 | 0.21 | 0.00 | 92 | 1012.6 |
| 20260904140704 | 54 | 86 | 0.0 | 1.0 | 0.00 | 0.21 | 0.00 | 92 | 1012.5 |
| 20260904140203 | 54 | 86 | 1.0 | 3.0 | 0.00 | 0.21 | 0.00 | 92 | 1012.5 |
| 20260904133704 | 54 | 93 | 1.0 | 3.0 | 0.00 | 0.21 | 0.00 | 93 | 1012.2 |
| 20260904130703 | 54 | 71 | 0.0 | 3.0 | 0.00 | 0.23 | 0.00 | 92 | 1011.9 |
| 20260904130204 | 54 | 59 | 0.0 | 1.0 | 0.00 | 0.23 | 0.00 | 92 | 1011.8 |
| 20260904123704 | 54 | 59 | 0.0 | 0.0 | 0.00 | 0.26 | 0.00 | 92 | 1011.8 |
| 20260904123204 | 54 | 59 | 1.0 | 2.0 | 0.00 | 0.26 | 0.00 | 92 | 1011.8 |
| 20260904120204 | 54 | 119 | 1.0 | 3.0 | 0.00 | 0.28 | 0.00 | 93 | 1011.4 |
| 20260904113704 | 54 | 68 | 1.0 | 2.0 | 0.00 | 0.28 | 0.00 | 93 | 1011.3 |
| 20260904113203 | 54 | 68 | 0.0 | 0.0 | 0.00 | 0.28 | 0.00 | 93 | 1011.3 |
| 20260904103703 | 54 | 68 | 0.0 | 0.0 | 0.00 | 0.28 | 0.00 | 93 | 1011.0 |
| 20260904103204 | 54 | 68 | 0.0 | 0.0 | 0.00 | 0.28 | 0.00 | 92 | 1011.0 |
| 20260904100704 | 55 | 68 | 0.0 | 0.0 | 0.00 | 0.28 | 0.00 | 92 | 1010.7 |
| 20260904093703 | 56 | 68 | 0.0 | 0.0 | 0.00 | 0.28 | 0.00 | 92 | 1010.7 |
| 20260904093204 | 56 | 68 | 0.0 | 3.0 | 0.00 | 0.28 | 0.00 | 92 | 1010.8 |
| 20260904090204 | 55 | 80 | 2.0 | 3.0 | 0.00 | 0.28 | 0.00 | 92 | 1010.7 |
| 20260904083704 | 55 | 90 | 2.0 | 3.0 | 0.00 | 0.28 | 0.00 | 92 | 1010.7 |
| 20260904083203 | 55 | 101 | 2.0 | 3.0 | 0.00 | 0.28 | 0.00 | 92 | 1010.8 |
| 20260904073704 | 56 | 68 | 0.0 | 1.0 | 0.02 | 0.28 | 0.00 | 92 | 1010.8 |
| 20260904073204 | 56 | 68 | 0.0 | 3.0 | 0.02 | 0.28 | 0.00 | 91 | 1010.8 |
| 20260904070704 | 56 | 68 | 0.0 | 0.0 | 0.03 | 0.28 | 0.00 | 91 | 1010.9 |
| 20260904070205 | 56 | 68 | 0.0 | 0.0 | 0.03 | 0.28 | 0.00 | 91 | 1010.9 |
| 20260904063703 | 57 | 68 | 0.0 | 0.0 | 0.01 | 0.26 | 0.26 | 90 | 1010.9 |
| 20260904063203 | 57 | 68 | 1.0 | 7.0 | 0.01 | 0.26 | 0.26 | 90 | 1010.8 |
| 20260904060704 | 57 | 82 | 1.0 | 3.0 | 0.00 | 0.25 | 0.25 | 90 | 1010.7 |
| 20260904060204 | 57 | 80 | 2.0 | 3.0 | 0.00 | 0.25 | 0.25 | 90 | 1010.6 |
| 20260904053704 | 57 | 80 | 0.0 | 0.0 | 0.00 | 0.25 | 0.25 | 91 | 1010.6 |
| 20260904053204 | 57 | 80 | 0.0 | 0.0 | 0.00 | 0.25 | 0.25 | 91 | 1010.6 |
| 20260904050704 | 58 | 80 | 0.0 | 0.0 | 0.00 | 0.25 | 0.25 | 91 | 1010.7 |
| 20260904050203 | 58 | 80 | 0.0 | 0.0 | 0.00 | 0.25 | 0.25 | 92 | 1010.6 |
| 20260904043204 | 57 | 80 | 0.0 | 0.0 | 0.00 | 0.25 | 0.25 | 91 | 1010.8 |
| 20260904040703 | 57 | 80 | 0.0 | 0.0 | 0.00 | 0.25 | 0.25 | 91 | 1010.6 |
| 20260904040205 | 58 | 80 | 0.0 | 0.0 | 0.00 | 0.25 | 0.25 | 90 | 1010.5 |
| 20260904033704 | 58 | 80 | 0.0 | 0.0 | 0.00 | 0.25 | 0.25 | 90 | 1010.4 |
| 20260904033204 | 58 | 80 | 0.0 | 3.0 | 0.00 | 0.25 | 0.25 | 90 | 1010.3 |
| 20260904030704 | 59 | 142 | 1.0 | 2.0 | 0.00 | 0.25 | 0.25 | 90 | 1010.1 |
| 20260904030204 | 59 | 142 | 0.0 | 2.0 | 0.00 | 0.25 | 0.25 | 89 | 1010.1 |
| 20260904023704 | 60 | 142 | 0.0 | 2.0 | 0.01 | 0.25 | 0.25 | 86 | 1010.0 |
| 20260904023204 | 59 | 142 | 1.0 | 6.0 | 0.01 | 0.25 | 0.25 | 87 | 1010.0 |
| 20260904020704 | 59 | 132 | 2.0 | 3.0 | 0.11 | 0.25 | 0.25 | 88 | 1009.9 |
| 20260904013704 | 60 | 145 | 1.0 | 3.0 | 0.17 | 0.24 | 0.24 | 88 | 1009.8 |
| 20260904013204 | 60 | 239 | 0.0 | 5.0 | 0.17 | 0.24 | 0.24 | 86 | 1009.9 |